This is the latest recevied weather packets stored in our database for station/object KB1ZFK. If no packets are shown the sender has not sent any weather packets the latest 10 day(s).
| Time | Temp. | Humidity | Pressure | Rain* | Wind** | Luminosity | Snow |
|---|---|---|---|---|---|---|---|
| 1777763970 | 7.78° C | 97% | 1010 hPa | 0 mm | - | 4 W/m² | - |
| 1777763667 | 7.78° C | 97% | 1010.2 hPa | 1.78 mm | - | 6 W/m² | - |
| 1777763365 | 7.78° C | 97% | 1010.2 hPa | 1.78 mm | - | 6 W/m² | - |
| 1777763063 | 7.78° C | 97% | 1010.1 hPa | 0 mm | - | 7 W/m² | - |
| 1777762761 | 7.78° C | 97% | 1010.2 hPa | 0 mm | - | 10 W/m² | - |
| 1777762456 | 7.78° C | 97% | 1010.2 hPa | 0 mm | - | 21 W/m² | - |
| 1777762153 | 8.33° C | 97% | 1010.2 hPa | 1.27 mm | - | 19 W/m² | - |
| 1777761849 | 8.33° C | 96% | 1010 hPa | 1.27 mm | - | 19 W/m² | - |
| 1777761546 | 7.78° C | 96% | 1010 hPa | 1.27 mm | - | 22 W/m² | - |
| 1777761244 | 8.33° C | 96% | 1010.1 hPa | 0 mm | - | 16 W/m² | - |
| 1777760942 | 8.33° C | 96% | 1009.8 hPa | 0 mm | - | 10 W/m² | - |
| 1777760639 | 8.33° C | 96% | 1010 hPa | 0 mm | - | 10 W/m² | - |
| 1777760335 | 8.33° C | 96% | 1009.8 hPa | 0 mm | - | 17 W/m² | - |
| 1777760032 | 8.33° C | 96% | 1009.9 hPa | 0 mm | - | 59 W/m² | - |
| 1777759729 | 8.33° C | 96% | 1009.9 hPa | 0 mm | - | 49 W/m² | - |
| 1777759425 | 8.33° C | 95% | 1009.6 hPa | 1.78 mm | - | 46 W/m² | - |
| 1777759121 | 7.78° C | 95% | 1009.8 hPa | 4.83 mm | - | 43 W/m² | - |
| 1777758819 | 7.78° C | 95% | 1009.8 hPa | 4.83 mm | - | 44 W/m² | - |
| 1777758515 | 8.33° C | 95% | 1009.9 hPa | 6.1 mm | - | 36 W/m² | - |
| 1777758212 | 8.33° C | 95% | 1009.8 hPa | 4.32 mm | - | 16 W/m² | - |
| 1777757910 | 8.89° C | 95% | 1010 hPa | 3.05 mm | - | 6 W/m² | - |
| 1777757607 | 8.89° C | 94% | 1009.8 hPa | 4.83 mm | - | 9 W/m² | - |
| 1777757305 | 8.89° C | 94% | 1009.9 hPa | 4.32 mm | - | 26 W/m² | - |
| 1777756998 | 8.89° C | 94% | 1009.7 hPa | 1.27 mm | - | 61 W/m² | - |
| 1777756695 | 8.89° C | 94% | 1009.6 hPa | 0 mm | - | 24 W/m² | - |
* Rain latest hour (hover to see other rain measurements)
** Current wind speed in m/s (hover to see current wind gust speed)